Weather History for Nassau Airport, Bahamas

Change the Weather History Date:

Tuesday, April 8, 2014

  Actual Average Record
Temperature  
Mean Temperature 82 °F -  
Max Temperature 88 °F 83 °F - ()
Min Temperature 77 °F 67 °F - ()
Cooling Degree Days 18    
Growing Degree Days 32 (Base 50)    
Moisture  
Dew Point 75 °F    
Average Humidity 81    
Maximum Humidity 94    
Minimum Humidity 69    
Precipitation  
Precipitation 0.31 in 0.09 in - ()
Sea Level Pressure  
Sea Level Pressure 29.93 in    
Wind  
Wind Speed 10 mph ()    
Max Wind Speed 14 mph    
Max Gust Speed 26 mph    
Visibility 6.5 miles    
Events Rain    
T = Trace of Precipitation, MM = Missing Value Source: Averaged Metar Reports

Daily Weather History Graph

Daily Weather History Graph

Search for Another Location

Airport:

Trip Planner

Search our weather history database for the weather conditions in past years. The results will help you decide how hot, cold, wet, or windy it might be!

Date:

Astronomy

Apr. 08, 2014 Rise Set
Actual Time 6:54 AM EDT 7:29 PM EDT
Civil Twilight 6:31 AM EDT 7:52 PM EDT
Nautical Twilight 6:04 AM EDT 8:19 PM EDT
Astronomical Twilight 5:36 AM EDT 8:47 PM EDT
Moon 1:55 PM EDT (4/8) 2:30 AM EDT (4/8)
Length of Visible Light 13h 21m
Length of Day
12h 34m
Waxing Gibbous, 62% of the Moon is Illuminated
Apr 8
Waxing Gibbous
Apr 15
Full
Apr 22
Last Quarter
Apr 29
New
May 6
First Quarter

Hourly Weather History & Observations

Time (EDT) Temp. Heat Index Dew Point Humidity Pressure Visibility Wind Dir Wind Speed Gust Speed Precip Events Conditions
12:00 AM 77.0 °F - 73.4 °F 89% 29.99 in 6.2 mi SE 13.8 mph - N/A   Scattered Clouds
8:00 AM 79 °F - 76 °F 87% 29.95 in 8 mi South 13.8 mph - -   Partly Cloudy
8:00 AM 78.8 °F - 75.2 °F 89% 29.94 in - North - - N/A   Mostly Cloudy
9:00 AM 78.8 °F - 73.4 °F 83% 29.96 in 6.2 mi South 13.8 mph - N/A   Mostly Cloudy
10:00 AM 77.0 °F - 73.4 °F 89% 29.97 in 6.2 mi SSE 8.1 mph - N/A Rain Light Rain Showers
11:00 AM 79 °F - 76 °F 89% 29.98 in 7 mi South 8.1 mph - -   Overcast
11:00 AM 78.8 °F - 77.0 °F 94% 29.98 in 6.2 mi South 8.1 mph - N/A Rain Light Rain
12:00 PM 80.6 °F 86.2 °F 75.2 °F 84% 29.96 in 6.2 mi South 9.2 mph - N/A   Overcast
1:00 PM - - - N/A% 29.94 in 6.2 mi South 11.5 mph - N/A   Mostly Cloudy
2:00 PM 86 °F - 77 °F 69% 29.92 in 8 mi South 12.7 mph - -   Partly Cloudy
2:00 PM 86.0 °F 96.9 °F 77.0 °F 74% 29.91 in 6.2 mi South 12.7 mph - N/A   Mostly Cloudy
3:00 PM 84.2 °F 90.9 °F 73.4 °F 70% 29.88 in 6.2 mi South 13.8 mph - N/A   Scattered Clouds
4:00 PM 84.2 °F 90.9 °F 73.4 °F 70% 29.87 in 6.2 mi South 13.8 mph 26.5 mph N/A   Scattered Clouds
5:00 PM 86 °F - 78 °F 70% 29.88 in 8 mi South 13.8 mph - -   Scattered Clouds
5:00 PM 86.0 °F 96.9 °F 77.0 °F 74% 29.88 in 6.2 mi South 13.8 mph - N/A   Mostly Cloudy
6:00 PM 82.4 °F 88.2 °F 73.4 °F 74% 29.88 in 6.2 mi South 11.5 mph 23.0 mph N/A   Scattered Clouds
7:00 PM 80.6 °F 85.4 °F 73.4 °F 79% 29.88 in 6.2 mi South 11.5 mph 23.0 mph N/A   Mostly Cloudy
8:00 PM 79 °F - 76 °F 88% 29.91 in 6 mi South 9.2 mph - - Rain Light Rain Showers
8:00 PM 78.8 °F - 77.0 °F 94% 29.90 in 5.6 mi South 9.2 mph - N/A Rain Light Rain Showers
9:00 PM 78.8 °F - 73.4 °F 83% 29.90 in 6.2 mi South 9.2 mph 23.0 mph N/A   Mostly Cloudy
11:00 PM 77 °F - 71 °F 78% 29.94 in 7 mi South 12.7 mph - - Rain Light Rain Showers
11:00 PM 77.0 °F - 71.6 °F 83% 29.94 in 6.2 mi South 12.7 mph 24.2 mph N/A   Mostly Cloudy